Angel Fire, NM

10:59 PM MST on November 17, 2019 (GMT -0700)
Angel Fire

Weather History for KAXX - June, 2019

Change the Weather History Date:

Sunday, June 2, 2019

  Actual Average (KSKX) Record (KSKX)
Temperature  
Mean Temperature 48 °F -  
Max Temperature 63 °F 76 °F 87 °F (1998)
Min Temperature 33 °F 39 °F 35 °F (1999)
Degree Days  
Heating Degree Days 17    
Moisture  
Dew Point 43 °F    
Average Humidity 81    
Maximum Humidity 97    
Minimum Humidity 51    
Precipitation  
Precipitation 0.04 in - - ()
Sea Level Pressure  
Sea Level Pressure 30.25 in    
Wind  
Wind Speed 5 mph (South)    
Max Wind Speed 18 mph    
Max Gust Speed 25 mph    
Visibility 10 miles    
Events Rain    
Averages and records for this station are not official NWS values.
T = Trace of Precipitation, MM = Missing Value Source: NWS Daily Summary

Daily Weather History Graph

Daily Weather History Graph

Search for Another Location

Airport or City:

Astronomy

Jun. 02, 2019 Rise Set
Actual Time 5:44 AM MDT 8:14 PM MDT
Civil Twilight 5:14 AM MDT 8:44 PM MDT
Nautical Twilight 4:37 AM MDT 9:21 PM MDT
Astronomical Twilight 3:56 AM MDT 10:02 PM MDT
Moon 5:22 AM MDT (6/2) 7:38 PM MDT (6/2)
Length of Visible Light 15h 29m
Length of Day
14h 29m
Waning Crescent, 1% of the Moon is Illuminated
Jun 2
Waning Crescent
Jun 3
New
Jun 10
First Quarter
Jun 17
Full
Jun 25
Last Quarter

Hourly Weather History & Observations

Time (MDT) Temp. Windchill Dew Point Humidity Pressure Visibility Wind Dir Wind Speed Gust Speed Precip Events Conditions
12:15 AM 35.6 °F - 33.4 °F 92% 30.27 in 10.0 mi Calm Calm - N/A   Unknown
12:35 AM 36.5 °F - 34.9 °F 94% 30.27 in 10.0 mi Calm Calm - N/A   Unknown
12:55 AM 35.4 °F 32.6 °F 33.8 °F 94% 30.28 in 10.0 mi SSE 3.5 mph - N/A   Unknown
1:15 AM 36.0 °F - 34.5 °F 94% 30.27 in 10.0 mi Calm Calm - N/A   Unknown
1:35 AM 37.9 °F - 36.5 °F 95% 30.27 in 10.0 mi Calm Calm - N/A   Unknown
1:55 AM 37.4 °F 32.8 °F 35.6 °F 93% 30.27 in 10.0 mi South 5.8 mph - N/A   Unknown
2:15 AM 38.8 °F 35.4 °F 36.9 °F 93% 30.28 in 10.0 mi ESE 4.6 mph - N/A   Unknown
2:35 AM 39.2 °F 37.0 °F 37.4 °F 93% 30.27 in 10.0 mi NW 3.5 mph - N/A Rain Light Rain
2:55 AM 40.3 °F 38.2 °F 38.7 °F 94% 30.27 in 10.0 mi West 3.5 mph - N/A   Unknown
3:15 AM 41.0 °F 38.0 °F 39.2 °F 93% 30.27 in 10.0 mi East 4.6 mph - N/A Rain Light Rain
3:35 AM 39.7 °F - 37.9 °F 93% 30.27 in 10.0 mi Calm Calm - N/A   Unknown
3:55 AM 39.2 °F 35.9 °F 37.8 °F 95% 30.27 in 10.0 mi SSE 4.6 mph - N/A   Unknown
4:15 AM 38.3 °F 34.8 °F 36.9 °F 95% 30.27 in 10.0 mi South 4.6 mph - N/A   Unknown
4:35 AM 36.7 °F - 35.4 °F 95% 30.27 in 7.0 mi Calm Calm - N/A   Unknown
4:55 AM 36.9 °F - 35.6 °F 95% 30.27 in 10.0 mi Calm Calm - N/A   Unknown
5:15 AM 35.4 °F - 34.3 °F 96% 30.27 in 7.0 mi Calm Calm - N/A   Unknown
5:35 AM 34.3 °F - 33.4 °F 97% 30.28 in 4.0 mi Calm Calm - N/A   Mist
5:55 AM 33.3 °F - 32.4 °F 96% 30.28 in 2.5 mi Calm Calm - N/A   Mist
6:15 AM 34.7 °F - 33.8 °F 97% 30.28 in 5.0 mi Calm Calm - N/A   Mist
6:35 AM 35.1 °F - 34.2 °F 97% 30.29 in 3.0 mi Calm Calm - N/A   Mist
6:55 AM 37.0 °F - 36.3 °F 97% 30.29 in 7.0 mi Calm Calm - N/A   Unknown
7:15 AM 40.1 °F - 39.2 °F 97% 30.30 in 10.0 mi Calm Calm - N/A   Unknown
7:35 AM 43.0 °F - 40.6 °F 91% 30.30 in 10.0 mi Calm Calm - N/A   Unknown
7:55 AM 44.2 °F - 41.0 °F 88% 30.30 in 10.0 mi Calm Calm - N/A   Unknown
8:15 AM 47.1 °F - 42.8 °F 85% 30.29 in 10.0 mi North 3.5 mph - N/A   Unknown
8:35 AM 51.3 °F - 44.8 °F 78% 30.29 in 10.0 mi NE 3.5 mph - N/A   Unknown
8:55 AM 54.5 °F - 45.0 °F 70% 30.30 in 10.0 mi South 11.5 mph - N/A   Unknown
9:15 AM 56.3 °F - 44.8 °F 65% 30.30 in 10.0 mi SSE 12.7 mph - N/A   Unknown
9:35 AM 57.7 °F - 45.7 °F 64% 30.29 in 10.0 mi South 12.7 mph - N/A   Unknown
9:55 AM 58.8 °F - 45.7 °F 62% 30.29 in 10.0 mi South 15.0 mph 19.6 mph N/A   Unknown
10:15 AM 59.5 °F - 45.7 °F 60% 30.29 in 10.0 mi SSE 17.3 mph 20.7 mph N/A   Unknown
10:35 AM 60.4 °F - 45.9 °F 59% 30.29 in 10.0 mi SSE 16.1 mph 24.2 mph N/A   Unknown
10:55 AM 60.3 °F - 45.9 °F 59% 30.28 in 10.0 mi SSE 18.4 mph 25.3 mph N/A   Unknown
11:15 AM 62.4 °F - 45.5 °F 54% 30.27 in 10.0 mi SSE 13.8 mph 18.4 mph N/A   Unknown
11:35 AM 63.1 °F - 44.6 °F 51% 30.26 in 10.0 mi South 13.8 mph - N/A   Unknown
11:55 AM 59.9 °F - 47.3 °F 63% 30.26 in 10.0 mi South 12.7 mph - N/A Rain Light Rain
12:15 PM 59.5 °F - 47.3 °F 64% 30.26 in 10.0 mi SSE 15.0 mph 20.7 mph N/A   Unknown
12:35 PM 57.0 °F - 47.8 °F 71% 30.25 in 10.0 mi SSE 8.1 mph 17.3 mph N/A   Unknown
12:55 PM 55.9 °F - 48.0 °F 75% 30.25 in 10.0 mi SSE 13.8 mph - N/A   Unknown
1:15 PM 51.3 °F - 46.6 °F 84% 30.26 in 7.0 mi SSW 13.8 mph - 0.03 in Rain Light Rain
1:35 PM 54.5 °F - 50.0 °F 85% 30.25 in 10.0 mi ESE 8.1 mph - 0.03 in   Unknown
1:55 PM 57.2 °F - 48.4 °F 72% 30.25 in 10.0 mi South 5.8 mph - 0.03 in   Unknown
2:15 PM 55.0 °F - 47.7 °F 76% 30.23 in 10.0 mi South 9.2 mph - 0.01 in Rain Light Rain
2:30 PM 54.5 °F - 48.2 °F 79% 30.23 in 10.0 mi Calm Calm - 0.01 in Rain Light Rain
2:55 PM 59.2 °F - 47.3 °F 65% 30.21 in 10.0 mi Calm Calm - 0.01 in   Unknown
3:15 PM 61.2 °F - 47.5 °F 61% 30.21 in 10.0 mi SE 9.2 mph - N/A   Unknown
3:35 PM 58.6 °F - 46.9 °F 65% 30.21 in 10.0 mi South 10.4 mph - N/A   Unknown
3:55 PM 60.3 °F - 46.6 °F 61% 30.19 in 10.0 mi SSW 6.9 mph - N/A   Unknown
4:15 PM 60.8 °F - 46.6 °F 59% 30.19 in 10.0 mi South 5.8 mph - N/A   Unknown
4:35 PM 60.8 °F - 47.1 °F 61% 30.17 in 10.0 mi South 16.1 mph - N/A   Unknown
4:55 PM 59.5 °F - 49.5 °F 69% 30.17 in 10.0 mi SSW 15.0 mph - N/A   Unknown
5:15 PM 60.8 °F - 50.4 °F 68% 30.16 in 10.0 mi South 17.3 mph - N/A   Unknown
5:35 PM 61.7 °F - 51.4 °F 69% 30.17 in 10.0 mi South 17.3 mph - N/A   Unknown
5:55 PM 60.3 °F - 51.6 °F 73% 30.18 in 10.0 mi South 15.0 mph - N/A   Unknown
6:15 PM 59.2 °F - 50.9 °F 74% 30.18 in 10.0 mi South 13.8 mph 19.6 mph N/A   Unknown
6:35 PM 57.6 °F - 50.9 °F 78% 30.19 in 10.0 mi South 16.1 mph - N/A   Unknown
6:55 PM 56.8 °F - 50.4 °F 79% 30.19 in 10.0 mi South 9.2 mph 12.7 mph N/A   Unknown
7:15 PM 57.9 °F - 50.0 °F 75% 30.19 in 10.0 mi SSW 9.2 mph - N/A   Unknown
7:35 PM 57.4 °F - 49.3 °F 74% 30.19 in 10.0 mi SSW 6.9 mph - N/A   Unknown
7:55 PM 54.5 °F - 48.6 °F 80% 30.20 in 10.0 mi West 4.6 mph - N/A   Unknown
8:15 PM 53.1 °F - 47.7 °F 82% 30.20 in 10.0 mi Calm Calm - N/A   Unknown
8:35 PM 48.4 °F - 45.3 °F 89% 30.21 in 10.0 mi Calm Calm - N/A   Unknown
8:55 PM 49.1 °F - 45.7 °F 88% 30.22 in 10.0 mi Calm Calm - N/A   Unknown
9:15 PM 45.3 °F 42.3 °F 41.7 °F 87% 30.23 in 10.0 mi West 5.8 mph - N/A   Unknown
9:35 PM 43.7 °F - 41.0 °F 90% 30.23 in 10.0 mi Calm Calm - N/A   Unknown
9:55 PM 42.8 °F - 40.8 °F 93% 30.23 in 10.0 mi Calm Calm - N/A   Unknown
10:15 PM 41.7 °F 39.8 °F 39.7 °F 93% 30.24 in 10.0 mi WSW 3.5 mph - N/A   Unknown
10:35 PM 41.5 °F - 39.6 °F 93% 30.26 in 10.0 mi Calm Calm - N/A   Unknown
10:55 PM 39.6 °F - 38.3 °F 95% 30.27 in 10.0 mi Calm Calm - N/A   Unknown
11:15 PM 41.0 °F - 39.6 °F 95% 30.27 in 10.0 mi Calm Calm - N/A   Unknown
11:35 PM 41.0 °F 39.0 °F 39.4 °F 94% 30.28 in 10.0 mi South 3.5 mph - N/A   Unknown
11:55 PM 41.5 °F - 39.9 °F 94% 30.28 in 10.0 mi Calm Calm - N/A   Unknown